EW6602 Weather Reports


time (UTC)temp
C
wind
direction
speed
KPH
gust
KPH
rain 1hr
cm
rain 24hr
cm
rain mn
cm
humidity
%
barometer
mb
20260504050328 7 294 0.0 0.0 0.00 0.00 0.00 81 1016.5
20260504050008 7 294 0.0 0.0 0.00 0.00 0.00 81 1016.6
20260504045819 7 294 0.0 0.0 0.00 0.00 0.00 80 1016.4
20260504045336 7 294 0.0 0.0 0.00 0.00 0.00 79 1016.4
20260504044843 7 327 0.0 0.0 0.00 0.00 0.00 79 1016.3
20260504044520 7 327 0.0 0.0 0.00 0.00 0.00 78 1016.4
20260504044319 7 327 0.0 0.0 0.00 0.00 0.00 78 1016.3
20260504043826 7 327 0.0 0.0 0.00 0.00 0.00 78 1016.3
20260504043323 7 328 0.0 0.0 0.00 0.00 0.00 78 1016.2
20260504043052 7 327 0.0 0.0 0.00 0.00 0.00 79 1016.4
20260504042841 7 327 0.0 0.0 0.00 0.00 0.00 79 1016.2
20260504042328 7 327 0.0 0.0 0.00 0.00 0.00 79 1016.1
20260504041816 7 327 0.0 0.0 0.00 0.00 0.00 78 1016.1
20260504041520 7 327 0.0 0.0 0.00 0.00 0.00 77 1016.2
20260504041332 7 327 0.0 0.0 0.00 0.00 0.00 76 1016.0
20260504040821 7 327 0.0 0.0 0.00 0.00 0.00 78 1016.0
20260504040354 7 327 0.0 0.0 0.00 0.00 0.00 77 1016.0
20260504040010 7 327 0.0 0.0 0.00 0.00 0.00 77 1016.1
20260504035823 7 327 0.0 0.0 0.00 0.00 0.00 78 1016.1
20260504035339 7 327 0.0 0.0 0.00 0.00 0.00 78 1016.1
20260504034827 7 327 0.0 0.0 0.00 0.00 0.00 77 1016.1
20260504034537 7 327 0.0 0.0 0.00 0.00 0.00 78 1016.1
20260504034315 7 327 0.0 0.0 0.00 0.00 0.00 78 1016.0
20260504033831 7 327 0.0 0.0 0.00 0.00 0.00 77 1016.0
20260504033329 7 327 0.0 0.0 0.00 0.00 0.00 77 1016.0
20260504033010 7 327 0.0 0.0 0.00 0.00 0.00 77 1016.1
20260504032817 7 327 0.0 0.0 0.00 0.00 0.00 77 1016.0
20260504032333 7 327 0.0 0.0 0.00 0.00 0.00 76 1016.1
20260504031821 7 327 0.0 0.0 0.00 0.00 0.00 76 1016.1
20260504031540 7 327 0.0 0.0 0.00 0.00 0.00 77 1016.2
20260504031337 7 327 0.0 0.0 0.00 0.00 0.00 76 1016.1
20260504030825 7 327 0.0 0.0 0.00 0.00 0.00 75 1016.2
20260504030341 7 327 0.0 0.0 0.00 0.00 0.00 74 1016.2
20260504030105 7 327 0.0 0.0 0.00 0.00 0.00 73 1016.2
20260504025822 7 327 0.0 0.0 0.00 0.00 0.00 73 1016.0
20260504025319 7 327 0.0 0.0 0.00 0.00 0.00 74 1016.0
20260504024825 7 327 0.0 0.0 0.00 0.00 0.00 74 1016.0
20260504024514 7 327 0.0 0.0 0.00 0.00 0.00 74 1016.2
20260504024322 7 327 0.0 0.0 0.00 0.00 0.00 74 1016.1
20260504023839 7 327 0.0 0.0 0.00 0.00 0.00 72 1016.1
20260504023325 8 327 0.0 0.0 0.00 0.00 0.00 74 1016.1
20260504023027 8 327 0.0 0.0 0.00 0.00 0.00 73 1016.1
20260504022823 8 327 0.0 0.0 0.00 0.00 0.00 72 1015.9
20260504022330 8 327 0.0 0.0 0.00 0.00 0.00 71 1015.9
20260504021815 8 327 0.0 0.0 0.00 0.00 0.00 70 1015.9
20260504021546 8 327 0.0 0.0 0.00 0.00 0.00 68 1015.9
20260504021333 9 327 0.0 0.0 0.00 0.00 0.00 66 1015.9
20260504020815 9 327 0.0 0.0 0.00 0.00 0.00 64 1015.8
20260504020330 9 327 0.0 0.0 0.00 0.00 0.00 62 1015.8
20260504020108 9 327 0.0 0.0 0.00 0.00 0.00 61 1015.8
20260504015819 10 327 0.0 0.0 0.00 0.00 0.00 61 1015.7
20260504015335 10 327 0.0 0.0 0.00 0.00 0.00 62 1015.6
20260504014822 10 327 0.0 1.6 0.00 0.00 0.00 61 1015.6
20260504014551 10 327 0.0 1.6 0.00 0.00 0.00 60 1015.7
20260504014319 10 327 0.0 1.6 0.00 0.00 0.00 60 1015.7
20260504013816 10 323 0.0 0.0 0.00 0.00 0.00 59 1015.6
20260504013322 10 261 0.0 1.6 0.00 0.00 0.00 58 1015.5
20260504013017 10 261 0.0 1.6 0.00 0.00 0.00 58 1015.6
20260504012813 10 261 0.0 1.6 0.00 0.00 0.00 58 1015.5
20260504012316 11 261 0.0 1.6 0.00 0.00 0.00 57 1015.3
20260504011832 11 261 0.0 1.6 0.00 0.00 0.00 56 1015.2
20260504011537 11 261 0.0 1.6 0.00 0.00 0.00 56 1015.3
20260504011328 11 261 0.0 1.6 0.00 0.00 0.00 56 1015.3
20260504010835 11 261 0.0 1.6 0.00 0.00 0.00 56 1015.2
20260504010327 11 261 0.0 0.0 0.00 0.00 0.00 55 1015.3
20260504010012 11 261 0.0 0.0 0.00 0.00 0.00 55 1015.3
20260504005848 12 261 0.0 0.0 0.00 0.00 0.00 55 1015.2
20260504005342 12 261 0.0 1.6 0.00 0.00 0.00 53 1015.3
20260504004838 12 261 0.0 1.6 0.00 0.00 0.00 51 1015.1
20260504004611 12 261 0.0 1.6 0.00 0.00 0.00 52 1015.2
20260504004320 12 261 0.0 1.6 0.00 0.00 0.00 51 1015.0
20260504003816 13 261 0.0 1.6 0.00 0.00 0.00 49 1015.1
20260504003317 13 261 0.0 0.0 0.00 0.00 0.00 49 1015.0
20260504003015 13 261 0.0 0.0 0.00 0.00 0.00 50 1015.0
20260504002848 13 261 0.0 0.0 0.00 0.00 0.00 49 1014.9
20260504002333 14 261 0.0 0.0 0.00 0.00 0.00 48 1015.0
20260504001813 15 261 0.0 0.0 0.00 0.00 0.00 44 1014.9
20260504001503 15 261 0.0 0.0 0.00 0.00 0.00 43 1014.8
20260504001326 15 261 0.0 0.0 0.00 0.00 0.00 44 1014.8
20260504000839 15 261 0.0 0.0 0.00 0.00 0.00 39 1014.8
20260504000326 16 261 0.0 0.0 0.00 0.00 0.00 37 1014.8
20260504000001 16 261 0.0 0.0 0.00 0.00 0.00 35 1014.8
20260503235826 16 261 0.0 0.0 0.00 0.00 0.00 35 1014.8
20260503235341 16 261 0.0 0.0 0.00 0.00 0.00 35 1014.8
20260503234829 17 261 0.0 0.0 0.00 0.00 0.00 34 1014.6
20260503234532 17 261 0.0 0.0 0.00 0.00 0.00 34 1014.7
20260503234324 17 261 0.0 0.0 0.00 0.00 0.00 34 1014.7
20260503233832 17 261 0.0 0.0 0.00 0.00 0.00 35 1014.6
20260503233327 18 261 0.0 0.0 0.00 0.00 0.00 35 1014.6
20260503233059 18 261 0.0 0.0 0.00 0.00 0.00 34 1014.7
20260503232831 18 261 0.0 0.0 0.00 0.00 0.00 36 1014.6
20260503232323 18 261 0.0 1.6 0.00 0.00 0.00 34 1014.7
20260503231831 18 261 0.0 1.6 0.00 0.00 0.00 29 1014.6
20260503231520 17 261 0.0 4.8 0.00 0.00 0.00 29 1014.6
20260503231326 18 261 0.0 4.8 0.00 0.00 0.00 29 1014.5
20260503230842 18 261 1.6 4.8 0.00 0.00 0.00 29 1014.5
20260503230323 18 261 1.6 4.8 0.00 0.00 0.00 29 1014.5
20260503230017 18 262 0.0 6.4 0.00 0.00 0.00 29 1014.6
20260503225828 18 262 0.0 6.4 0.00 0.00 0.00 29 1014.5
20260503225315 18 204 3.2 6.4 0.00 0.00 0.00 29 1014.5
20260503224824 18 295 0.0 0.0 0.00 0.00 0.00 30 1014.5
20260503224539 18 295 0.0 1.6 0.00 0.00 0.00 28 1014.6
20260503224327 18 295 0.0 4.8 0.00 0.00 0.00 28 1014.5
20260503223823 18 295 0.0 6.4 0.00 0.00 0.00 28 1014.5
20260503223315 18 286 3.2 12.9 0.00 0.00 0.00 28 1014.4
20260503223044 18 302 1.6 12.9 0.00 0.00 0.00 29 1014.6
20260503222822 18 326 6.4 12.9 0.00 0.00 0.00 28 1014.4
20260503222320 18 328 4.8 12.9 0.00 0.00 0.00 28 1014.4
20260503221835 18 298 4.8 16.1 0.00 0.00 0.00 28 1014.5
20260503221511 18 254 4.8 16.1 0.00 0.00 0.00 28 1014.6
20260503221323 18 291 9.7 16.1 0.00 0.00 0.00 29 1014.7
20260503220838 18 128 3.2 16.1 0.00 0.00 0.00 29 1014.6
20260503220346 18 339 4.8 14.5 0.00 0.00 0.00 28 1014.6
20260503220123 18 291 1.6 8.0 0.00 0.00 0.00 29 1014.8
20260503215814 18 237 3.2 14.5 0.00 0.00 0.00 29 1014.7
20260503215331 18 322 1.6 19.3 0.00 0.00 0.00 29 1014.7
20260503214820 18 315 8.0 19.3 0.00 0.00 0.00 28 1014.7
20260503214529 18 274 6.4 14.5 0.00 0.00 0.00 28 1014.7
20260503214333 18 275 3.2 14.5 0.00 0.00 0.00 29 1014.7
20260503213851 18 277 4.8 14.5 0.00 0.00 0.00 28 1014.7
20260503213317 18 282 4.8 16.1 0.00 0.00 0.00 29 1014.7
20260503213038 18 277 1.6 16.1 0.00 0.00 0.00 29 1014.8
20260503212853 18 348 6.4 20.9 0.00 0.00 0.00 29 1014.7
20260503212320 18 293 4.8 20.9 0.00 0.00 0.00 30 1014.7
20260503211816 18 310 6.4 14.5 0.00 0.00 0.00 29 1014.8
20260503211547 17 339 6.4 14.5 0.00 0.00 0.00 30 1014.8
20260503211324 17 329 4.8 14.5 0.00 0.00 0.00 31 1014.8
20260503210821 17 161 6.4 17.7 0.00 0.00 0.00 30 1014.8
20260503210339 18 291 9.7 17.7 0.00 0.00 0.00 30 1014.9
20260503210119 17 268 9.7 17.7 0.00 0.00 0.00 30 1015.0
20260503205820 18 329 4.8 19.3 0.00 0.00 0.00 30 1014.9
20260503205333 17 306 8.0 19.3 0.00 0.00 0.00 31 1015.0
20260503204821 17 288 3.2 12.9 0.00 0.00 0.00 31 1015.1
20260503204528 17 282 1.6 16.1 0.00 0.00 0.00 32 1015.2
20260503204337 17 154 1.6 16.1 0.00 0.00 0.00 31 1015.1
20260503203825 17 348 8.0 19.3 0.00 0.00 0.00 30 1015.2
20260503203321 17 269 11.3 19.3 0.00 0.00 0.00 31 1015.2
20260503203100 17 324 11.3 17.7 0.00 0.00 0.00 30 1015.3
20260503202829 17 307 9.7 17.7 0.00 0.00 0.00 31 1015.2
20260503202325 17 313 4.8 17.7 0.00 0.00 0.00 31 1015.2
20260503201833 17 312 1.6 11.3 0.00 0.00 0.00 32 1015.2
20260503201525 16 353 4.8 11.3 0.00 0.00 0.00 32 1015.5
20260503201330 17 299 3.2 12.9 0.00 0.00 0.00 32 1015.3
20260503200817 17 277 1.6 22.5 0.00 0.00 0.00 31 1015.4
20260503200334 17 218 11.3 22.5 0.00 0.00 0.00 32 1015.6
20260503200101 16 342 14.5 22.5 0.00 0.00 0.00 32 1015.7
20260503195815 16 285 6.4 29.0 0.00 0.00 0.00 32 1015.6
20260503195332 17 334 14.5 29.0 0.00 0.00 0.00 32 1015.7
20260503194848 17 310 9.7 20.9 0.00 0.00 0.00 32 1015.8
20260503194547 17 272 6.4 20.9 0.00 0.00 0.00 34 1016.0
20260503194316 17 249 9.7 20.9 0.00 0.00 0.00 34 1015.9
20260503193832 17 267 11.3 25.7 0.00 0.00 0.00 34 1015.9
20260503193320 16 21 4.8 25.7 0.00 0.00 0.00 34 1015.9
20260503193014 16 316 9.7 25.7 0.00 0.00 0.00 35 1016.2
20260503192818 16 316 6.4 17.7 0.00 0.00 0.00 34 1016.0
20260503192337 16 297 11.3 19.3 0.00 0.00 0.00 33 1016.2
20260503191823 16 326 3.2 22.5 0.00 0.00 0.00 35 1016.2
20260503191543 16 312 11.3 22.5 0.00 0.00 0.00 34 1016.5
20260503191339 16 8 11.3 22.5 0.00 0.00 0.00 36 1016.3
20260503190855 16 339 4.8 19.3 0.00 0.00 0.00 35 1016.4
20260503190342 16 283 9.7 19.3 0.00 0.00 0.00 35 1016.7
20260503190115 15 270 6.4 22.5 0.00 0.00 0.00 36 1016.8
20260503185827 15 268 6.4 22.5 0.00 0.00 0.00 33 1016.7
20260503185324 16 280 12.9 22.5 0.00 0.00 0.00 35 1016.8
20260503184902 16 8 8.0 19.3 0.00 0.00 0.00 35 1016.8
20260503184503 15 348 6.4 19.3 0.00 0.00 0.00 35 1017.1
20260503184328 15 326 9.7 19.3 0.00 0.00 0.00 36 1017.0
20260503183826 15 306 9.7 22.5 0.00 0.00 0.00 36 1017.0
20260503183333 15 294 8.0 27.4 0.00 0.00 0.00 35 1017.1
20260503183033 15 293 12.9 27.4 0.00 0.00 0.00 36 1017.3
20260503182829 15 314 16.1 25.7 0.00 0.00 0.00 35 1017.1
20260503182337 15 353 11.3 22.5 0.00 0.00 0.00 37 1017.1
20260503181853 15 358 6.4 17.7 0.00 0.00 0.00 37 1017.0
20260503181522 15 277 6.4 17.7 0.00 0.00 0.00 37 1017.2
20260503181328 15 304 9.7 17.7 0.00 0.00 0.00 37 1017.1
20260503180816 15 358 4.8 20.9 0.00 0.00 0.00 37 1017.1
20260503180314 15 76 12.9 20.9 0.00 0.00 0.00 37 1017.3
20260503180106 15 303 11.3 19.3 0.00 0.00 0.00 39 1017.5
20260503175825 15 206 3.2 17.7 0.00 0.00 0.00 38 1017.3
20260503175401 15 187 6.4 17.7 0.00 0.00 0.00 38 1017.4
20260503174827 14 162 3.2 17.7 0.00 0.00 0.00 38 1017.3
20260503174546 14 320 9.7 24.1 0.00 0.00 0.00 37 1017.5
20260503174344 15 207 6.4 24.1 0.00 0.00 0.00 38 1017.4
20260503173831 15 267 11.3 24.1 0.00 0.00 0.00 39 1017.4
20260503173327 15 236 4.8 8.0 0.00 0.00 0.00 38 1017.4
20260503173104 14 318 3.2 8.0 0.00 0.00 0.00 39 1017.6
20260503172815 14 348 0.0 12.9 0.00 0.00 0.00 39 1017.5
20260503172332 14 223 3.2 20.9 0.00 0.00 0.00 39 1017.6
20260503171820 13 337 9.7 20.9 0.00 0.00 0.00 41 1017.5
20260503171524 13 331 8.0 20.9 0.00 0.00 0.00 40 1017.7
20260503171317 13 314 8.0 24.1 0.00 0.00 0.00 40 1017.7
20260503170821 13 318 8.0 24.1 0.00 0.00 0.00 40 1017.8
20260503170317 13 319 8.0 19.3 0.00 0.00 0.00 41 1017.9
20260503150824 10 320 6.4 19.3 0.00 0.00 0.00 44 1019.3
20260503150341 11 325 11.3 20.9 0.00 0.00 0.00 45 1019.4
20260503150105 10 320 11.3 22.5 0.00 0.00 0.00 46 1019.5
20260503131333 8 292 8.0 17.7 0.00 0.00 0.00 52 1019.1
20260503130841 8 348 6.4 19.3 0.00 0.00 0.00 52 1019.1
20260503130315 8 304 9.7 24.1 0.00 0.00 0.00 53 1019.2
20260503110819 6 348 4.8 9.7 0.00 0.00 0.00 62 1018.4
20260503110316 6 329 1.6 16.1 0.00 0.00 0.00 61 1018.2
20260503100120 6 336 4.8 12.9 0.00 0.00 0.00 63 1016.9
20260503090349 7 12 17.7 25.7 0.00 0.00 0.00 60 1016.3
20260503090121 7 327 14.5 25.7 0.00 0.00 0.00 60 1016.3
20260503081549 7 313 3.2 12.9 0.00 0.00 0.00 66 1016.2
20260503081340 7 330 4.8 12.9 0.00 0.00 0.00 66 1016.0
20260503080826 7 328 4.8 8.0 0.00 0.00 0.00 67 1016.0
20260503080314 7 324 3.2 8.0 0.00 0.00 0.00 66 1016.0
20260503080119 7 317 1.6 8.0 0.00 0.00 0.00 67 1016.0
20260503072833 6 294 8.0 17.7 0.00 0.00 0.00 69 1015.7
20260503072320 6 278 1.6 11.3 0.00 0.00 0.00 70 1015.6
20260503071814 6 316 1.6 11.3 0.00 0.00 0.00 70 1015.6
20260503071536 6 316 3.2 11.3 0.00 0.00 0.00 70 1015.6
20260503071330 6 331 1.6 6.4 0.00 0.00 0.00 70 1015.5
20260503070838 7 228 1.6 12.9 0.00 0.00 0.00 69 1015.5
20260503070354 7 337 4.8 12.9 0.00 0.00 0.00 68 1015.3
20260503060325 8 348 6.4 19.3 0.00 0.00 0.00 63 1015.3
20260503060105 8 353 8.0 19.3 0.00 0.00 0.00 63 1015.3
20260503054816 8 316 3.2 9.7 0.00 0.00 0.00 61 1015.2
20260503054555 8 311 3.2 12.9 0.00 0.00 0.00 61 1015.2
20260503054325 8 312 4.8 12.9 0.00 0.00 0.00 61 1015.2
20260503053822 8 306 4.8 14.5 0.00 0.00 0.00 61 1015.2
20260503053338 8 335 6.4 19.3 0.00 0.00 0.00 60 1015.0